Location: Brantley
(31.5822°N, 86.2569°W)
Time: 05:06:21
(UTC+00:00)

Courier 1B Rocket - Pass Details

Date: 18 February 2026
Orbit: 920 x 1201 km, 28.2° (Epoch: 5 March)

Event Time Altitude Azimuth Distance (km) Brightness Sun altitude
Rises 23:04:25 0° 225° (SW) 3,561 9.2 5.4°
Reaches altitude 10° 23:07:23 10° 213° (SSW) 2,604 8.2 4.8°
Maximum altitude 23:12:34 28° 157° (SSE) 1,655 6.2 3.7°
Drops below altitude 10° 23:17:46 10° 100° (E) 2,624 6.7 2.6°
Sets 23:20:47 0° 89° (E) 3,593 7.3 2.0°
